Weather History for Marathon, FL

Change the Weather History Date:

Friday, October 25, 2013

  Actual Average Record
Temperature  
Mean Temperature 80 °F 79 °F  
Max Temperature 84 °F 84 °F 90 °F (2002)
Min Temperature 75 °F 74 °F 66 °F (2006)
Degree Days  
Heating Degree Days 0 0  
Month to date heating degree days 0 0  
Since 1 July heating degree days 0 0  
Cooling Degree Days 15 14  
Month to date cooling degree days 460 405  
Year to date cooling degree days 4766 4359  
Growing Degree Days 28 (Base 50)    
Moisture  
Dew Point 66 °F    
Average Humidity 64    
Maximum Humidity 74    
Minimum Humidity 54    
Precipitation  
Precipitation 0.00 in 0.15 in 0.78 in (2012)
Month to date precipitation 1.12 3.95  
Year to date precipitation 43.51 40.50  
Snow  
Snow 0.00 in - - ()
Month to date snowfall 0.0  
Since 1 July snowfall 0.0  
Since 1 September snowfall 0.0  
Snow Depth 0.00 in    
Sea Level Pressure  
Sea Level Pressure 30.09 in    
Wind  
Wind Speed 15 mph (NE)    
Max Wind Speed 23 mph    
Max Gust Speed 30 mph    
Visibility 10 miles    
Events      
T = Trace of Precipitation, MM = Missing Value Source: NWS Daily Summary

Daily Weather History Graph

Daily Weather History Graph

Search for Another Location

Airport:

Trip Planner

Search our weather history database for the weather conditions in past years. The results will help you decide how hot, cold, wet, or windy it might be!

Date:

Astronomy

Oct. 25, 2013 Rise Set
Actual Time 7:27 AM EDT 6:48 PM EDT
Civil Twilight 7:04 AM EDT 7:11 PM EDT
Nautical Twilight 6:37 AM EDT 7:38 PM EDT
Astronomical Twilight 6:10 AM EDT 8:05 PM EDT
Moon No Moon Rise 12:57 PM EDT (10/25)
Length of Visible Light 12h 07m
Length of Day
11h 21m
Waning Gibbous, 62% of the Moon is Illuminated
Oct 25
Waning Gibbous
Oct 26
Last Quarter
Nov 3
New
Nov 10
First Quarter
Nov 17
Full

Hourly Weather History & Observations

Time (EDT) Temp. Heat Index Dew Point Humidity Pressure Visibility Wind Dir Wind Speed Gust Speed Precip Events Conditions
12:53 AM 78.1 °F - 66.9 °F 68% 30.04 in 10.0 mi NE 15.0 mph - N/A   Clear
1:53 AM 78.1 °F - 66.0 °F 66% 30.05 in 10.0 mi NNE 15.0 mph 20.7 mph N/A   Clear
2:53 AM 77.0 °F - 66.0 °F 69% 30.04 in 10.0 mi NNE 13.8 mph - N/A   Clear
3:53 AM 75.9 °F - 66.9 °F 74% 30.05 in 10.0 mi NNE 12.7 mph - N/A   Clear
4:53 AM 75.9 °F - 66.9 °F 74% 30.06 in 10.0 mi NNE 10.4 mph - N/A   Clear
5:53 AM 75.9 °F - 66.0 °F 71% 30.07 in 10.0 mi NNE 11.5 mph 21.9 mph N/A   Clear
6:53 AM 75.9 °F - 66.9 °F 74% 30.09 in 10.0 mi NNE 12.7 mph - N/A   Clear
7:53 AM 75.9 °F - 66.0 °F 71% 30.10 in 10.0 mi NNE 11.5 mph 21.9 mph N/A   Clear
8:53 AM 77.0 °F - 66.0 °F 69% 30.12 in 10.0 mi NNE 13.8 mph 19.6 mph N/A   Clear
9:53 AM 79.0 °F - 66.9 °F 66% 30.13 in 10.0 mi NNE 10.4 mph 20.7 mph N/A   Clear
10:53 AM 81.0 °F 83.3 °F 66.9 °F 62% 30.13 in 10.0 mi NNE 12.7 mph 19.6 mph N/A   Clear
11:53 AM 81.0 °F 83.3 °F 66.9 °F 62% 30.12 in 10.0 mi NE 15.0 mph 21.9 mph N/A   Clear
12:53 PM 82.0 °F 84.5 °F 66.9 °F 60% 30.11 in 10.0 mi NNE 13.8 mph - N/A   Clear
1:53 PM 82.9 °F 85.4 °F 66.9 °F 58% 30.08 in 10.0 mi NE 15.0 mph - N/A   Clear
2:53 PM 82.9 °F 85.0 °F 66.0 °F 56% 30.07 in 10.0 mi ENE 18.4 mph - N/A   Partly Cloudy
3:53 PM 82.0 °F 83.4 °F 64.0 °F 54% 30.07 in 10.0 mi NE 19.6 mph - N/A   Clear
4:53 PM 82.0 °F 84.1 °F 66.0 °F 58% 30.08 in 10.0 mi ENE 21.9 mph 28.8 mph N/A   Partly Cloudy
5:53 PM 81.0 °F 82.2 °F 63.0 °F 54% 30.08 in 10.0 mi ENE 19.6 mph 27.6 mph N/A   Clear
6:53 PM 80.1 °F 81.5 °F 63.0 °F 56% 30.09 in 10.0 mi NE 19.6 mph 25.3 mph N/A   Clear
7:53 PM 79.0 °F - 63.0 °F 58% 30.09 in 10.0 mi NE 19.6 mph 26.5 mph N/A   Clear
8:53 PM 78.1 °F - 64.0 °F 62% 30.09 in 10.0 mi NE 18.4 mph 26.5 mph N/A   Clear
9:53 PM 78.1 °F - 64.0 °F 62% 30.11 in 10.0 mi NE 18.4 mph 27.6 mph N/A   Clear
10:53 PM 77.0 °F - 64.0 °F 64% 30.11 in 10.0 mi NE 12.7 mph 23.0 mph N/A   Clear
11:53 PM 77.0 °F - 66.0 °F 69% 30.12 in 10.0 mi NE 15.0 mph - N/A   Clear